This is the latest recevied weather packets stored in our database for station/object KMASWX. If no packets are shown the sender has not sent any weather packets the latest 10 day(s).
| Time | Temp. | Humidity | Pressure | Rain* | Wind** | Luminosity | Snow |
|---|---|---|---|---|---|---|---|
| 1778108406 | 28.33° C | 21% | - | 0 mm | - | - | - |
| 1778108102 | 28.89° C | 20% | - | 0 mm | - | - | - |
| 1778107795 | 29.44° C | 20% | - | 0 mm | - | - | - |
| 1778107492 | 28.89° C | 22% | - | 0 mm | - | - | - |
| 1778107188 | 28.33° C | 21% | - | 0 mm | - | - | - |
| 1778106885 | 28.89° C | 21% | - | 0 mm | - | - | - |
| 1778106578 | 28.33° C | 21% | - | 0 mm | - | - | - |
| 1778106275 | 27.78° C | 22% | - | 0 mm | - | - | - |
| 1778105971 | 28.33° C | 21% | - | 0 mm | - | - | - |
| 1778105668 | 28.33° C | 22% | - | 0 mm | - | - | - |
| 1778105364 | 27.78° C | 21% | - | 0 mm | - | - | - |
| 1778104747 | 28.33° C | 21% | - | 0 mm | - | - | - |
| 1778104442 | 28.89° C | 20% | - | 0 mm | - | - | - |
| 1778104135 | 29.44° C | 21% | - | 0 mm | - | - | - |
| 1778103832 | 28.33° C | 21% | - | 0 mm | - | - | - |
| 1778103528 | 28.33° C | 21% | - | 0 mm | - | - | - |
| 1778102918 | 28.33° C | 21% | - | 0 mm | - | - | - |
| 1778102615 | 28.89° C | 21% | - | 0 mm | - | - | - |
| 1778102308 | 28.33° C | 20% | - | 0 mm | - | - | - |
| 1778102004 | 28.33° C | 22% | - | 0 mm | - | - | - |
| 1778101395 | 28.89° C | 20% | - | 0 mm | - | - | - |
| 1778101088 | 28.33° C | 23% | - | 0 mm | - | - | - |
| 1778100785 | 26.67° C | 23% | - | 0 mm | - | - | - |
| 1778100175 | 28.33° C | 22% | - | 0 mm | - | - | - |
| 1778099871 | 27.22° C | 26% | - | 0 mm | - | - | - |
* Rain latest 24 hours (hover to see other rain measurements)
** Current wind speed in m/s (hover to see current wind gust speed)